Погода в Луганском

Украина / Донецкая область     48°25′52″N   38°15′13″E
темп.,
°C
ветер,
м/с
пор.,
м/с
влажн.,
%
обл.,
%
осадки,
мм/ч
давл.,
гПа
погр.,
м
8 марта, пн
пн823:00−1зюз8166650 0.0 1015829
02:00−2зюз8156857 0.0 1014650
05:00−3зюз7158113 0.0 1012528
08:00−1зюз9147755 0.0 1012793
11:00+3зюз10156296 0.0 10121657
14:00+4зюз10145898 0.1 10101801
17:00+2зюз51172100 0.1 1010504
20:000зюз51189100 0.1 1011545
9 марта, вт
вт923:00−1зсз4794100 0.4 1011462
02:00−2з4790100 0.4 1012318
05:00−3з488665 0.1 1012352
08:00−2зсз697964 0.1 1014887
11:000зсз6862100 0.1 10151285
14:000зсз7858100 0.3 10161494
17:00−2сз6865100 0.1 10171111
20:00−4сз477098 0.2 1020877
10 марта, ср
ср1023:00−5ссз577141 0.0 1022831
02:00−6ссз567054 0.0 1023900
05:00−7ссз466048 0.0 1025863
08:00−6ссз455940 0.0 1026935
11:00−4ссз444362 0.0 10261179
14:00−2ссз343738 0.0 10261265
17:00−3ссв33425 0.0 1026858
20:00−4св35492 0.0 1027475
11 марта, чт
чт1123:00−5св45510 0.0 1027495
02:00−6всв45520 0.0 1028615
05:00−7всв46550 0.0 1028592
08:00−7всв56510 0.0 1030633
11:00−6всв56408 0.0 1030898
14:00−5всв552612 0.0 10301150
17:00−6всв563043 0.0 10291053
20:00−7всв563264 0.0 1031977
12 марта, пт
пт1223:00−9в563816 0.0 1032806
02:00−10в56448 0.0 1031622
05:00−11в35470 0.0 1032568
08:00−10в46430 0.0 1033539
11:00−6вюв45270 0.0 1033860
14:00−4юв44230 0.0 10321022
17:00−4юв452722 0.0 10321035
20:00−5ююв583123 0.0 1032846